N8SHA Weather Reports


Display with metric or nautical units.
time (UTC)temp
F
wind
direction
speed
MPH
gust
MPH
rain 1hr
in
rain 24hr
in
rain mn
in
humidity
%
barometer
mb
20260504173803 76 177 7.0 14.0 0.00 0.00 0.00 29 1001.6
20260504173300 77 179 3.0 7.0 0.00 0.00 0.00 31 1001.5
20260504172756 76 185 5.0 9.0 0.00 0.00 0.00 33 1001.9
20260504172254 75 218 3.0 13.0 0.00 0.00 0.00 32 1002.0
20260504171749 76 143 2.0 15.0 0.00 0.00 0.00 33 1002.0
20260504171247 76 141 3.0 13.0 0.00 0.00 0.00 34 1001.8
20260504170743 75 195 3.0 13.0 0.00 0.00 0.00 33 1001.9
20260504170241 75 195 5.0 11.0 0.00 0.00 0.00 34 1002.2
20260504160159 72 171 5.0 11.0 0.00 0.00 0.00 39 1003.0
20260504151127 67 174 3.0 7.0 0.00 0.00 0.00 52 1003.7
20260504150624 68 204 2.0 6.0 0.00 0.00 0.00 53 1003.7
20260504150121 66 338 0.0 7.0 0.00 0.00 0.00 57 1003.7
20260504141050 61 181 3.0 5.0 0.00 0.00 0.00 63 1003.9
20260504140546 60 178 2.0 7.0 0.00 0.00 0.00 64 1003.9
20260504130510 55 175 5.0 9.0 0.00 0.00 0.00 72 1004.4
20260504110358 48 176 3.0 10.0 0.00 0.00 0.00 80 1004.4
20260504100315 48 198 5.0 8.0 0.00 0.00 0.00 80 1004.3
20260504081709 49 286 3.0 5.0 0.00 0.00 0.00 77 1004.8
20260504081205 49 218 3.0 10.0 0.00 0.00 0.00 76 1004.7
20260504080701 49 172 3.0 12.0 0.00 0.00 0.00 76 1004.9
20260504080158 49 169 5.0 7.0 0.00 0.00 0.00 76 1004.9
20260504070126 49 221 2.0 9.0 0.00 0.00 0.00 74 1005.6
20260504050514 50 167 2.0 10.0 0.00 0.00 0.00 71 1007.2
20260504050012 50 166 2.0 11.0 0.00 0.00 0.00 70 1007.1
20260504045508 50 177 6.0 9.0 0.00 0.00 0.00 70 1007.4
20260504045003 50 195 5.0 7.0 0.00 0.00 0.00 69 1007.3
20260504044501 50 208 3.0 8.0 0.00 0.00 0.00 70 1007.1
20260504043958 50 140 3.0 5.0 0.00 0.00 0.00 69 1007.3
20260504043455 50 167 3.0 6.0 0.00 0.00 0.00 69 1007.2
20260504042952 50 131 2.0 7.0 0.00 0.00 0.00 69 1007.3
20260504042449 50 161 4.0 9.0 0.00 0.00 0.00 69 1007.5
20260504041946 50 196 5.0 9.0 0.00 0.00 0.00 69 1007.5
20260504041442 50 187 4.0 10.0 0.00 0.00 0.00 69 1007.3
20260504040938 50 183 2.0 7.0 0.00 0.00 0.00 69 1007.4
20260504040436 50 127 3.0 8.0 0.00 0.00 0.00 69 1007.5
20260504035931 50 187 3.0 10.0 0.00 0.00 0.00 69 1007.6
20260504035429 50 218 4.0 7.0 0.00 0.00 0.00 69 1007.6
20260504034926 50 199 4.0 10.0 0.00 0.00 0.00 69 1007.8
20260504034423 50 272 3.0 5.0 0.00 0.00 0.00 69 1007.5
20260504033920 51 185 4.0 7.0 0.00 0.00 0.00 68 1007.6
20260504033418 51 173 3.0 11.0 0.00 0.00 0.00 68 1007.9
20260504032915 51 212 3.0 11.0 0.00 0.00 0.00 68 1007.9
20260504032411 51 199 4.0 7.0 0.00 0.00 0.00 69 1007.9
20260504031908 51 200 2.0 4.0 0.00 0.00 0.00 69 1007.9
20260504031405 51 220 4.0 7.0 0.00 0.00 0.00 68 1008.2
20260504030902 51 151 3.0 7.0 0.00 0.00 0.00 68 1007.9
20260504030359 51 155 5.0 9.0 0.00 0.00 0.00 68 1007.8
20260504025855 51 194 2.0 8.0 0.00 0.00 0.00 68 1008.1
20260504025352 51 155 3.0 7.0 0.00 0.00 0.00 68 1008.0
20260504024849 51 151 1.0 7.0 0.00 0.00 0.00 68 1008.0
20260504024345 51 176 2.0 8.0 0.00 0.00 0.00 67 1008.2
20260504023842 51 209 4.0 8.0 0.00 0.00 0.00 67 1008.2
20260504023339 51 185 6.0 9.0 0.00 0.00 0.00 67 1008.3
20260504022834 51 199 2.0 12.0 0.00 0.00 0.00 67 1008.2
20260504022332 51 166 1.0 10.0 0.00 0.00 0.00 67 1008.2
20260504021828 51 166 3.0 8.0 0.00 0.00 0.00 67 1008.2
20260504021326 51 147 2.0 5.0 0.00 0.00 0.00 66 1008.4
20260504020822 51 201 2.0 5.0 0.00 0.00 0.00 66 1008.4
20260504020319 52 196 3.0 9.0 0.00 0.00 0.00 66 1008.4
20260504015815 52 177 3.0 7.0 0.00 0.00 0.00 66 1008.5
20260504015311 51 89 1.0 6.0 0.00 0.00 0.00 66 1008.6
20260504014808 52 144 4.0 6.0 0.00 0.00 0.00 65 1008.5
20260504014304 52 171 2.0 4.0 0.00 0.00 0.00 66 1008.3
20260504013802 52 176 3.0 6.0 0.00 0.00 0.00 65 1008.4
20260504013259 52 142 1.0 5.0 0.00 0.00 0.00 65 1008.5
20260504012755 52 186 4.0 6.0 0.00 0.00 0.00 64 1008.4
20260504012254 52 153 3.0 6.0 0.00 0.00 0.00 65 1008.3
20260504011750 52 107 5.0 9.0 0.00 0.00 0.00 65 1008.3
20260504011247 53 136 1.0 7.0 0.00 0.00 0.00 64 1008.3
20260504010743 53 194 4.0 7.0 0.00 0.00 0.00 64 1008.4
20260504010238 53 225 5.0 11.0 0.00 0.00 0.00 64 1008.3
20260504005735 53 156 2.0 3.0 0.00 0.00 0.00 64 1008.5
20260504005233 53 186 3.0 8.0 0.00 0.00 0.00 63 1008.5
20260504004730 53 171 5.0 8.0 0.00 0.00 0.00 63 1008.5
20260504004227 53 165 2.0 7.0 0.00 0.00 0.00 63 1008.6
20260504003724 53 182 5.0 8.0 0.00 0.00 0.00 62 1008.5
20260504003221 53 192 3.0 9.0 0.00 0.00 0.00 63 1008.6
20260504002717 54 184 3.0 7.0 0.00 0.00 0.00 62 1008.6
20260504002214 54 174 6.0 9.0 0.00 0.00 0.00 61 1008.7
20260504001713 54 192 2.0 7.0 0.00 0.00 0.00 61 1008.7
20260504001209 55 174 8.0 11.0 0.00 0.00 0.00 60 1008.5
20260504000706 55 172 6.0 13.0 0.00 0.00 0.00 59 1008.9
20260504000204 55 173 12.0 13.0 0.00 0.00 0.00 59 1008.9
20260503235701 55 193 5.0 16.0 0.00 0.00 0.00 58 1008.5
20260503235157 56 186 8.0 16.0 0.00 0.00 0.00 58 1008.5
20260503234655 56 180 3.0 11.0 0.00 0.00 0.00 58 1008.5
20260503234154 57 165 6.0 15.0 0.00 0.00 0.00 57 1008.4
20260503233650 57 186 4.0 11.0 0.00 0.00 0.00 57 1008.4
20260503233146 57 191 5.0 11.0 0.00 0.00 0.00 56 1008.6
20260503232643 57 206 1.0 9.0 0.00 0.00 0.00 55 1008.4
20260503232140 57 160 2.0 8.0 0.00 0.00 0.00 55 1008.3
20260503231638 57 129 2.0 7.0 0.00 0.00 0.00 54 1008.2
20260503231134 58 185 9.0 15.0 0.00 0.00 0.00 52 1008.3
20260503230631 58 179 10.0 13.0 0.00 0.00 0.00 51 1008.6
20260503230128 58 160 4.0 12.0 0.00 0.00 0.00 51 1008.5
20260503225626 58 180 5.0 12.0 0.00 0.00 0.00 50 1008.6
20260503225125 58 180 7.0 16.0 0.00 0.00 0.00 49 1008.6
20260503224623 58 190 3.0 12.0 0.00 0.00 0.00 49 1008.7
20260503224121 59 208 6.0 11.0 0.00 0.00 0.00 49 1008.9
20260503223619 59 177 4.0 9.0 0.00 0.00 0.00 49 1008.8
20260503223114 59 186 3.0 8.0 0.00 0.00 0.00 48 1008.8
20260503222612 59 195 4.0 7.0 0.00 0.00 0.00 48 1008.8
20260503222110 59 179 4.0 11.0 0.00 0.00 0.00 47 1008.7
20260503221608 60 200 4.0 11.0 0.00 0.00 0.00 47 1008.7
20260503221105 60 172 5.0 10.0 0.00 0.00 0.00 47 1008.7
20260503220601 60 185 3.0 12.0 0.00 0.00 0.00 47 1008.7
20260503220058 61 43 2.0 8.0 0.00 0.00 0.00 46 1008.8
20260503215555 61 180 4.0 13.0 0.00 0.00 0.00 46 1008.7
20260503215052 62 188 4.0 7.0 0.00 0.00 0.00 44 1008.7
20260503214550 62 225 2.0 10.0 0.00 0.00 0.00 43 1008.6
20260503214046 61 175 7.0 9.0 0.00 0.00 0.00 45 1008.7
20260503213545 61 191 6.0 9.0 0.00 0.00 0.00 45 1008.7
20260503213041 61 180 1.0 9.0 0.00 0.00 0.00 45 1008.8
20260503212539 61 210 5.0 14.0 0.00 0.00 0.00 45 1008.8
20260503212036 62 215 5.0 9.0 0.00 0.00 0.00 44 1008.5
20260503211533 61 185 4.0 17.0 0.00 0.00 0.00 44 1008.7
20260503211028 61 191 7.0 14.0 0.00 0.00 0.00 44 1008.6
20260503210526 62 167 5.0 15.0 0.00 0.00 0.00 43 1008.8
20260503210021 63 180 5.0 16.0 0.00 0.00 0.00 42 1008.7
20260503205518 62 233 3.0 8.0 0.00 0.00 0.00 44 1008.8
20260503205015 62 159 3.0 15.0 0.00 0.00 0.00 42 1008.8
20260503204512 64 181 5.0 10.0 0.00 0.00 0.00 41 1008.8
20260503204009 65 183 4.0 11.0 0.00 0.00 0.00 40 1008.5
20260503203506 64 240 2.0 11.0 0.00 0.00 0.00 39 1008.8
20260503203003 63 182 7.0 13.0 0.00 0.00 0.00 40 1008.9
20260503202501 63 178 2.0 20.0 0.00 0.00 0.00 41 1009.0
20260503201959 66 198 8.0 12.0 0.00 0.00 0.00 38 1008.8
20260503201456 65 205 4.0 12.0 0.00 0.00 0.00 38 1008.9
20260503200953 65 327 6.0 13.0 0.00 0.00 0.00 41 1008.9
20260503200449 65 204 2.0 9.0 0.00 0.00 0.00 40 1009.0
20260503195946 64 119 4.0 12.0 0.00 0.00 0.00 40 1009.1
20260503195444 64 199 14.0 17.0 0.00 0.00 0.00 38 1009.1
20260503194940 64 314 2.0 15.0 0.00 0.00 0.00 38 1009.3
20260503194437 65 194 2.0 15.0 0.00 0.00 0.00 38 1009.2
20260503193932 65 172 6.0 15.0 0.00 0.00 0.00 39 1009.1
20260503193428 64 212 8.0 12.0 0.00 0.00 0.00 39 1009.2
20260503192924 64 145 5.0 11.0 0.00 0.00 0.00 39 1009.5
20260503192421 62 288 3.0 9.0 0.00 0.00 0.00 39 1009.6
20260503191916 64 191 4.0 9.0 0.00 0.00 0.00 40 1009.5
20260503191414 65 157 5.0 9.0 0.00 0.00 0.00 39 1009.4
20260503190910 63 192 11.0 21.0 0.00 0.00 0.00 39 1009.6
20260503190408 64 237 2.0 14.0 0.00 0.00 0.00 39 1009.7
20260503185904 62 121 3.0 6.0 0.00 0.00 0.00 43 1009.6
20260503185401 62 187 5.0 9.0 0.00 0.00 0.00 43 1009.7
20260503184900 62 251 0.0 9.0 0.00 0.00 0.00 43 1010.2
20260503184356 63 200 2.0 10.0 0.00 0.00 0.00 42 1010.1
20260503183853 65 252 5.0 15.0 0.00 0.00 0.00 40 1010.2
20260503183350 65 239 2.0 11.0 0.00 0.00 0.00 42 1009.8
20260503182847 63 170 3.0 11.0 0.00 0.00 0.00 45 1010.3
20260503182346 61 192 9.0 21.0 0.00 0.00 0.00 44 1010.3
20260503181842 62 320 5.0 9.0 0.00 0.00 0.00 43 1010.4
20260503181340 64 193 5.0 7.0 0.00 0.00 0.00 42 1010.4
20260503180836 63 247 4.0 10.0 0.00 0.00 0.00 43 1010.4
20260503180334 63 271 3.0 10.0 0.00 0.00 0.00 44 1010.7
20260503175830 62 314 1.0 15.0 0.00 0.00 0.00 44 1010.5
20260503175328 62 170 10.0 12.0 0.00 0.00 0.00 44 1010.7
20260503174823 62 161 4.0 5.0 0.00 0.00 0.00 46 1010.9
20260503174322 61 187 4.0 8.0 0.00 0.00 0.00 44 1010.8